Back to catalog

CZ-6A DEB

AliveSSO
NORAD 54954·DEBRIS·🇨🇳 China

Launched Nov 11, 2022 from Taiyuan Satellite Launch Center

Loading…

Next Passes (next 24 hours)

TLE

FreshSource: Space-Track

Epoch: Sep 14, 2026, 15:08 UTC

1 54954U 22151ST  26257.63106745  .00004212  00000-0  83126-3 0  9994
2 54954  98.6100 318.2454 0089923  33.7961 326.8925 14.60462268202648

Track CZ-6A DEB in real time with AllMySat

Download on the App Store